This is the latest recevied weather packets stored in our database for station/object EA3ANS-1. If no packets are shown the sender has not sent any weather packets the latest 1 day(s).
| Time | Temp. | Humidity | Pressure | Rain* | Wind** | Luminosity | Snow |
|---|---|---|---|---|---|---|---|
| 1777966362 | 13.89° C | - | 1011.7 hPa | 0 mm | 3.58 m/s, 15° | - | - |
| 1777965759 | 13.33° C | - | 1011.9 hPa | 0 mm | 4.92 m/s, 1° | - | - |
| 1777965159 | 13.33° C | - | 1011.9 hPa | 0 mm | 3.58 m/s, 316° | - | - |
| 1777964560 | 12.78° C | - | 1012.1 hPa | 0 mm | 2.24 m/s, 323° | - | - |
| 1777963961 | 12.78° C | - | 1012 hPa | 0 mm | 2.68 m/s, 308° | - | - |
| 1777963360 | 12.22° C | - | 1012.1 hPa | 0 mm | 3.58 m/s, 342° | - | - |
| 1777962761 | 12.22° C | - | 1011.9 hPa | 0 mm | 3.58 m/s, 343° | - | - |
| 1777962163 | 12.22° C | - | 1011.7 hPa | 0 mm | 3.13 m/s, 314° | - | - |
| 1777961562 | 12.22° C | - | 1011.7 hPa | 0 mm | 2.24 m/s, 338° | - | - |
| 1777960960 | 11.67° C | - | 1011.9 hPa | 0 mm | 3.13 m/s, 311° | - | - |
| 1777960362 | 11.11° C | - | 1011.9 hPa | 0 mm | 1.34 m/s, 290° | - | - |
| 1777959761 | 10.56° C | - | 1011.8 hPa | 0 mm | 1.79 m/s, 294° | - | - |
| 1777959160 | 10.56° C | - | 1011.9 hPa | 0 mm | 3.58 m/s, 293° | - | - |
| 1777958563 | 11.11° C | - | 1011.9 hPa | 0 mm | 2.68 m/s, 293° | - | - |
| 1777957965 | 11.11° C | - | 1011.6 hPa | 0 mm | 1.34 m/s, 281° | - | - |
| 1777957363 | 11.11° C | - | 1011.6 hPa | 0 mm | 2.24 m/s, 325° | - | - |
| 1777956765 | 10.56° C | - | 1011.8 hPa | 0 mm | 2.24 m/s, 263° | - | - |
| 1777956168 | 10.56° C | - | 1011.9 hPa | 0 mm | 4.02 m/s, 319° | - | - |
| 1777955568 | 11.11° C | - | 1011.9 hPa | 0 mm | 2.68 m/s, 336° | - | - |
| 1777954970 | 10.56° C | - | 1012.1 hPa | 0 mm | 1.79 m/s, 345° | - | - |
| 1777954373 | 11.11° C | - | 1012.1 hPa | 0 mm | 1.34 m/s, 354° | - | - |
* Rain latest hour (hover to see other rain measurements)
** Current wind speed in m/s (hover to see current wind gust speed)